sat.trackr.live / text

‹ back to catalog

UNKNOWN

NORAD 87300

UNKNOWN UNKNOWN UNKNOWN

§ Identity

Operator
Country
Launch date
Launch site
Launch vehicle
Mass (kg)
RCS (m²)

External: N2YO · Heavens-Above

§ Orbital elements

Epoch: 2026-05-20T11:27:12.991680Z

Period
102.86 min
Inclination
100.0935°
Eccentricity
0.0023965
Mean motion
13.99968214 rev/d
Perigee alt
876.5 km
Apogee alt
911.3 km
Semi-major
7,272.0 km
B*
4.5847e-4
RAAN
144.1089°
Arg perigee
222.2237°
Mean anomaly
137.7079°
Rev number
63,532

§ Raw data

UNKNOWN1 87300U          26140.47723370  .00000623  00000+0  45847-3 0  99952 87300 100.0935 144.1089 0023965 222.2237 137.7079 13.99968214635325

JSON: /api/v1/satellites/87300 · /tle

For live sub-satellite position, see the globe view (requires WebGL).

§ Visibility from observer

Set your observer location to see the next 7 days of passes ≥ 10°. The values pass through the URL so the page stays shareable.

No JS? Fill the form by hand. The geolocation button needs JavaScript.